"Pseudo-MPEC" for P10VUJL

Created 2020 Jan 21 6:07:20 UT using Find_Orb

Click here for an explanation of pseudo-MPECs

 
 Astrometry: 
     P10VUJL  C2019 12 318M$J++G)w_OAstrometry7PMt!WyaZEiredacted;,Eb9*@+XDVcF51
     P10VUJL  C2019 12 31PWl'uslHmmYF.RSclickRohere_Q1WjwvtB,]Lc)-%$rs?_sN7y'F51
     P10VUJL  C2019 12 31CIAtZR?vP;pLG-xd6+i:f;t_5Z3=K2Do[?CprblW=NXJB;ef/Q[*F51
     P10VUJL KC2020 01 02kp$3i628LQ\B#Dh%V+-403W%yChP$ruOjybZjtLp.l)-Zcc@pwP*H21
     P10VUJL KC2020 01 02./]+wg0Jc_:!N,P!VcH9J)V3Ifor'eSeMHY95CcR(Xo],U3-2CKZH21
     P10VUJL KC2020 01 027u=G/@NNM9!iaZ)Q#F]_$,webdLN.wbysexplanationF\FO0theH21

Station data:
(F51) Pan-STARRS 1, Haleakala  (N20.707235 W156.255910)  US/Hawaii.
   Observers N. Primak, A. Schultz, S. Watters, J. Thiel, T. Goggia. Measurer
   PS1 Science Consortium. 1.8-m Ritchey-Chrétien + CCD.
(H21) Astronomical Research Observatory, Westfield  (N39.483057 W87.968270)
   US/Illinois. 0.76-m f/3.0 astrograph + CCD.

Orbital elements:  P10VUJL
   Perihelion 2019 Dec 9.841544 +/- 50.9 TT = 20:11:49 (JD 2458827.341544)
Epoch 2020 Jan  2.0 TT = JDT 2458850.5   Earth MOID: 0.7160   AutoNEOCP
M   5.33345631 +/- 8                (J2000 ecliptic)
n   0.23030275 +/- 0.13             Peri.   69.97163 +/- 41
a   2.63594671 +/- 0.995            Node    10.05731 +/- 14
e   0.3815902 +/- 0.172             Incl.   15.62716 +/- 3.3
P   4.28                   H 20.6   G  0.15   U 11.4  SR
q 1.63009504 +/- 0.386    Q 3.64179838 +/- 6.93
From 6 observations 2019 Dec. 31-2020 Jan. 2 (39.7 hr); mean residual 0".34
Residuals in arcseconds: 
191231 F51  .53-  .46+    191231 F51  .47+  .28-    200102 H21  .39-  .34+    
191231 F51  .07+  .19-    200102 H21  .10-  .30-    200102 H21  .48+  .03-    

Ephemerides (geocentric):
Date (UTC) HH   RA              Dec         delta   r     elong  mag " sig PA
---- -- -- --  -------------   -----------  ------ ------ -----  --- ---- ---
2020 01 21 06  05 01 00.539   +54 41 55.55  .85189 1.6675 130.4 22.6 1899  45
2020 01 21 07  05 01 02.746   +54 41 23.99  .85214 1.6676 130.4 22.6 1907  45
2020 01 21 08  05 01 04.960   +54 40 52.42  .85238 1.6676 130.4 22.6 1915  44
2020 01 21 09  05 01 07.179   +54 40 20.82  .85262 1.6677 130.3 22.6 1923  44
2020 01 21 10  05 01 09.405   +54 39 49.21  .85287 1.6678 130.3 22.6 1931  44
2020 01 21 11  05 01 11.636   +54 39 17.59  .85311 1.6678 130.3 22.6 1939  44
2020 01 21 12  05 01 13.873   +54 38 45.94  .85335 1.6679 130.3 22.6 1947  44
2020 01 21 13  05 01 16.116   +54 38 14.28  .85360 1.6680 130.2 22.6 1955  44
2020 01 21 14  05 01 18.365   +54 37 42.60  .85384 1.6681 130.2 22.6 1963  44
2020 01 21 15  05 01 20.620   +54 37 10.91  .85408 1.6681 130.2 22.6 1971  44
2020 01 21 16  05 01 22.880   +54 36 39.19  .85433 1.6682 130.2 22.6 1979  44
2020 01 21 17  05 01 25.147   +54 36 07.46  .85457 1.6683 130.2 22.6 1987  44
2020 01 21 18  05 01 27.419   +54 35 35.71  .85482 1.6684 130.1 22.6 1995  44
2020 01 21 19  05 01 29.698   +54 35 03.95  .85506 1.6684 130.1 22.6 2003  44
2020 01 21 20  05 01 31.982   +54 34 32.16  .85531 1.6685 130.1 22.6 2011  44
2020 01 21 21  05 01 34.272   +54 34 00.37  .85555 1.6686 130.1 22.6 2019  44
2020 01 21 22  05 01 36.567   +54 33 28.55  .85580 1.6686 130.0 22.6 2027  44
2020 01 21 23  05 01 38.869   +54 32 56.71  .85604 1.6687 130.0 22.6 2035  44
2020 01 22 00  05 01 41.177   +54 32 24.86  .85629 1.6688 130.0 22.6 2043  44
2020 01 22 01  05 01 43.490   +54 31 53.00  .85653 1.6689 130.0 22.6 2051  44
2020 01 22 02  05 01 45.809   +54 31 21.11  .85678 1.6689 130.0 22.6 2059  44
2020 01 22 03  05 01 48.134   +54 30 49.21  .85703 1.6690 129.9 22.6 2067  44
2020 01 22 04  05 01 50.465   +54 30 17.29  .85727 1.6691 129.9 22.6 2075  44
2020 01 22 05  05 01 52.802   +54 29 45.36  .85752 1.6692 129.9 22.6 2084  44
2020 01 22 06  05 01 55.144   +54 29 13.41  .85777 1.6692 129.9 22.6 2092  44
2020 01 22 07  05 01 57.492   +54 28 41.44  .85802 1.6693 129.8 22.6 2100  44
2020 01 22 08  05 01 59.846   +54 28 09.46  .85826 1.6694 129.8 22.6 2108  44
2020 01 22 09  05 02 02.206   +54 27 37.46  .85851 1.6695 129.8 22.6 2116  44
2020 01 22 10  05 02 04.572   +54 27 05.44  .85876 1.6695 129.8 22.6 2125  44
2020 01 22 11  05 02 06.943   +54 26 33.41  .85901 1.6696 129.8 22.6 2133  44
2020 01 22 12  05 02 09.320   +54 26 01.36  .85925 1.6697 129.7 22.6 2141  44
2020 01 22 13  05 02 11.703   +54 25 29.29  .85950 1.6697 129.7 22.6 2149  44
2020 01 22 14  05 02 14.092   +54 24 57.21  .85975 1.6698 129.7 22.6 2158  44
2020 01 22 15  05 02 16.487   +54 24 25.11  .86000 1.6699 129.7 22.6 2166  44
2020 01 22 16  05 02 18.887   +54 23 53.00  .86025 1.6700 129.6 22.6 2174  44
2020 01 22 17  05 02 21.293   +54 23 20.87  .86050 1.6700 129.6 22.6 2183  44
2020 01 22 18  05 02 23.705   +54 22 48.72  .86075 1.6701 129.6 22.6 2191  44
2020 01 22 19  05 02 26.122   +54 22 16.56  .86100 1.6702 129.6 22.6 2199  44
2020 01 22 20  05 02 28.545   +54 21 44.38  .86125 1.6703 129.6 22.6 2208  44
2020 01 22 21  05 02 30.974   +54 21 12.18  .86150 1.6703 129.5 22.6 2216  44
2020 01 22 22  05 02 33.409   +54 20 39.97  .86175 1.6704 129.5 22.6 2225  44
2020 01 22 23  05 02 35.849   +54 20 07.75  .86200 1.6705 129.5 22.6 2233  44
2020 01 23 00  05 02 38.295   +54 19 35.50  .86225 1.6706 129.5 22.6 2242  44
2020 01 23 01  05 02 40.747   +54 19 03.25  .86250 1.6706 129.4 22.6 2250  44
2020 01 23 02  05 02 43.204   +54 18 30.97  .86275 1.6707 129.4 22.6 2258  44
2020 01 23 03  05 02 45.668   +54 17 58.69  .86300 1.6708 129.4 22.6 2267  44
2020 01 23 04  05 02 48.137   +54 17 26.38  .86326 1.6709 129.4 22.6 2275  44
2020 01 23 05  05 02 50.611   +54 16 54.06  .86351 1.6709 129.4 22.6 2284  44